Tracking 19795 objects as of 17-Jul-2019
HD Live streaming from Space Station
objects crossing your sky now

COSMOS 84

Track COSMOS 84 now!
10-day predictions
COSMOS 84 is classified as:


NORAD ID: 1574
Int'l Code: 1965-070E
Perigee: 1,475.1 km
Apogee: 1,577.8 km
Inclination: 56.1 °
Period: 116.4 minutes
Semi major axis: 7897 km
RCS: 0.553 m2 (medium)
Launch date: September 3, 1965
Source: Commonwealth of Independent States (former USSR) (CIS)
Launch site: TYURATAM MISSILE AND SPACE COMPLEX (TTMTR)
aabbcc
Your satellite tracking list
Your tracking list is empty




NASA's NSSDC Master Catalog

Two Line Element Set (TLE):
1  1574U 65070E   19198.17679223 -.00000063  00000-0  22821-3 0  9998
2  1574  56.0513 242.7954 0065054 145.2143 253.2614 12.37004449434189
Source of the keplerian elements: AFSPC